| time (UTC) | temp C | wind direction | speed KPH | gust KPH | rain 1hr cm | rain 24hr cm | rain mn cm | humidity % | barometer mb |
| 20260904015753 | 27 | 101 | 0.0 | 0.0 | 0.00 | 0.48 | 0.48 | 76 | 1012.1 |
| 20260904015248 | 27 | 125 | 0.0 | 0.0 | 0.00 | 0.48 | 0.48 | 76 | 1012.3 |
| 20260904014746 | 27 | 115 | 0.0 | 0.0 | 0.00 | 0.48 | 0.48 | 77 | 1012.2 |
| 20260904014242 | 27 | 120 | 0.0 | 0.0 | 0.00 | 0.48 | 0.48 | 77 | 1012.3 |
| 20260904013738 | 27 | 107 | 0.0 | 0.0 | 0.00 | 0.48 | 0.48 | 78 | 1012.2 |
| 20260904013234 | 27 | 104 | 0.0 | 0.0 | 0.00 | 0.48 | 0.48 | 78 | 1012.1 |
| 20260904012730 | 27 | 80 | 0.0 | 0.0 | 0.00 | 0.48 | 0.48 | 77 | 1012.2 |
| 20260904012229 | 27 | 87 | 0.0 | 0.0 | 0.00 | 0.48 | 0.48 | 76 | 1012.1 |
| 20260904011728 | 27 | 96 | 0.0 | 0.0 | 0.00 | 0.48 | 0.48 | 75 | 1011.9 |
| 20260904011224 | 27 | 89 | 0.0 | 0.0 | 0.00 | 0.48 | 0.48 | 74 | 1012.2 |
| 20260904010719 | 27 | 77 | 0.0 | 0.0 | 0.00 | 0.48 | 0.48 | 74 | 1011.7 |
| 20260904010215 | 27 | 109 | 0.0 | 0.0 | 0.00 | 0.48 | 0.48 | 75 | 1011.9 |
| 20260904005710 | 27 | 106 | 0.0 | 0.0 | 0.00 | 0.48 | 0.48 | 74 | 1011.9 |
| 20260904005207 | 27 | 96 | 0.0 | 0.0 | 0.00 | 0.48 | 0.48 | 74 | 1012.2 |
| 20260904004706 | 27 | 74 | 0.0 | 0.0 | 0.00 | 0.48 | 0.48 | 74 | 1011.7 |
| 20260904004201 | 27 | 99 | 0.0 | 0.0 | 0.00 | 0.48 | 0.48 | 74 | 1011.6 |
| 20260904003656 | 27 | 80 | 0.0 | 0.0 | 0.00 | 0.48 | 0.48 | 73 | 1011.6 |
| 20260904003153 | 28 | 101 | 0.0 | 0.0 | 0.00 | 0.48 | 0.48 | 73 | 1012.1 |
| 20260904002648 | 28 | 76 | 0.0 | 0.0 | 0.00 | 0.48 | 0.48 | 72 | 1012.0 |
| 20260904002143 | 28 | 94 | 0.0 | 0.0 | 0.00 | 0.48 | 0.48 | 71 | 1012.0 |
| 20260904001639 | 28 | 104 | 0.0 | 0.0 | 0.00 | 0.48 | 0.48 | 71 | 1011.9 |
| 20260904001137 | 28 | 96 | 0.0 | 0.0 | 0.00 | 0.48 | 0.48 | 70 | 1011.9 |
| 20260904000633 | 28 | 125 | 0.0 | 0.0 | 0.00 | 0.48 | 0.48 | 70 | 1011.8 |
| 20260904000128 | 28 | 101 | 0.0 | 0.0 | 0.00 | 0.48 | 0.48 | 70 | 1011.7 |
| 20260903235628 | 28 | 125 | 0.0 | 0.0 | 0.00 | 0.48 | 0.48 | 71 | 1011.5 |
| 20260903235124 | 28 | 118 | 0.0 | 0.0 | 0.00 | 0.48 | 0.48 | 70 | 1011.5 |
| 20260903234619 | 28 | 89 | 0.0 | 0.0 | 0.00 | 0.48 | 0.48 | 70 | 1011.3 |
| 20260903234115 | 28 | 115 | 0.0 | 0.0 | 0.00 | 0.48 | 0.48 | 69 | 1011.3 |
| 20260903233611 | 28 | 116 | 0.0 | 0.0 | 0.00 | 0.48 | 0.48 | 70 | 1011.4 |
| 20260903233106 | 28 | 107 | 0.0 | 0.0 | 0.00 | 0.48 | 0.48 | 70 | 1011.3 |
| 20260903232601 | 29 | 104 | 0.0 | 0.0 | 0.00 | 0.48 | 0.48 | 69 | 1011.3 |
| 20260903232056 | 29 | 98 | 0.0 | 0.0 | 0.00 | 0.48 | 0.48 | 68 | 1011.2 |
| 20260903231545 | 29 | 128 | 0.0 | 0.0 | 0.00 | 0.48 | 0.48 | 68 | 1011.3 |
| 20260903231045 | 29 | 139 | 0.0 | 0.0 | 0.00 | 0.48 | 0.48 | 67 | 1011.2 |
| 20260903230541 | 29 | 52 | 0.0 | 0.0 | 0.00 | 0.48 | 0.48 | 67 | 1011.5 |
| 20260903230039 | 29 | 186 | 0.0 | 0.0 | 0.00 | 0.48 | 0.48 | 67 | 1011.3 |
| 20260903225537 | 30 | 131 | 0.0 | 0.0 | 0.00 | 0.48 | 0.48 | 67 | 1011.4 |
| 20260903225033 | 30 | 125 | 0.0 | 0.0 | 0.00 | 0.48 | 0.48 | 66 | 1011.6 |
| 20260903224524 | 30 | 94 | 0.0 | 0.0 | 0.00 | 0.48 | 0.48 | 66 | 1011.5 |
| 20260903224020 | 30 | 147 | 0.0 | 0.0 | 0.00 | 0.48 | 0.48 | 66 | 1011.5 |
| 20260903223519 | 30 | 97 | 0.0 | 0.0 | 0.00 | 0.48 | 0.48 | 67 | 1011.4 |
| 20260903223018 | 30 | 115 | 0.0 | 0.0 | 0.00 | 0.48 | 0.48 | 67 | 1011.6 |
| 20260903222514 | 30 | 129 | 0.0 | 0.0 | 0.00 | 0.48 | 0.48 | 67 | 1011.6 |
| 20260903222012 | 30 | 139 | 0.0 | 0.0 | 0.00 | 0.48 | 0.48 | 67 | 1011.5 |
| 20260903221508 | 30 | 90 | 0.0 | 0.0 | 0.00 | 0.48 | 0.48 | 65 | 1011.5 |
| 20260903221005 | 30 | 115 | 0.0 | 0.0 | 0.00 | 0.48 | 0.48 | 65 | 1011.5 |
| 20260903220505 | 30 | 178 | 0.0 | 0.0 | 0.00 | 0.48 | 0.48 | 64 | 1011.3 |
| 20260903220003 | 30 | 102 | 0.0 | 0.0 | 0.00 | 0.48 | 0.48 | 65 | 1011.4 |
| 20260903215459 | 30 | 123 | 0.0 | 0.0 | 0.00 | 0.48 | 0.48 | 65 | 1011.3 |
| 20260903214957 | 30 | 159 | 0.0 | 0.0 | 0.00 | 0.48 | 0.48 | 64 | 1011.3 |
| 20260903214452 | 30 | 113 | 0.0 | 0.0 | 0.00 | 0.48 | 0.48 | 64 | 1011.2 |
| 20260903213947 | 30 | 105 | 0.0 | 0.0 | 0.00 | 0.48 | 0.48 | 64 | 1011.2 |
| 20260903213443 | 30 | 41 | 0.0 | 0.0 | 0.00 | 0.48 | 0.48 | 65 | 1011.2 |
| 20260903212938 | 30 | 130 | 0.0 | 0.0 | 0.00 | 0.48 | 0.48 | 64 | 1011.3 |
| 20260903212434 | 31 | 115 | 0.0 | 0.0 | 0.00 | 0.48 | 0.48 | 64 | 1011.4 |
| 20260903211928 | 30 | 129 | 0.0 | 0.0 | 0.00 | 0.48 | 0.48 | 64 | 1011.5 |
| 20260903211424 | 30 | 125 | 0.0 | 0.0 | 0.00 | 0.48 | 0.48 | 65 | 1011.3 |
| 20260903210920 | 30 | 108 | 0.0 | 0.0 | 0.00 | 0.48 | 0.48 | 65 | 1011.3 |
| 20260903210419 | 30 | 117 | 0.0 | 0.0 | 0.00 | 0.48 | 0.48 | 66 | 1011.4 |
| 20260903205915 | 30 | 58 | 0.0 | 0.0 | 0.00 | 0.48 | 0.48 | 64 | 1011.5 |
| 20260903205414 | 30 | 167 | 0.0 | 0.0 | 0.00 | 0.48 | 0.48 | 62 | 1011.5 |
| 20260903204909 | 30 | 104 | 0.0 | 0.0 | 0.00 | 0.48 | 0.48 | 63 | 1011.5 |
| 20260903204405 | 31 | 116 | 0.0 | 0.0 | 0.00 | 0.48 | 0.48 | 62 | 1011.4 |
| 20260903203901 | 31 | 124 | 0.0 | 0.0 | 0.00 | 0.48 | 0.48 | 61 | 1011.5 |
| 20260903203356 | 31 | 111 | 0.0 | 0.0 | 0.00 | 0.48 | 0.48 | 61 | 1011.4 |
| 20260903202855 | 31 | 104 | 0.0 | 0.0 | 0.00 | 0.48 | 0.48 | 60 | 1011.3 |
| 20260903202352 | 30 | 89 | 0.0 | 0.0 | 0.00 | 0.48 | 0.48 | 62 | 1011.3 |
| 20260903201851 | 31 | 108 | 0.0 | 0.0 | 0.00 | 0.48 | 0.48 | 62 | 1011.4 |
| 20260903201347 | 31 | 114 | 0.0 | 0.0 | 0.00 | 0.48 | 0.48 | 61 | 1011.2 |
| 20260903200845 | 31 | 86 | 0.0 | 0.0 | 0.00 | 0.48 | 0.48 | 62 | 1011.4 |
| 20260903200341 | 31 | 155 | 0.0 | 0.0 | 0.00 | 0.48 | 0.48 | 61 | 1011.3 |
| 20260903195836 | 31 | 88 | 0.0 | 0.0 | 0.00 | 0.48 | 0.48 | 62 | 1011.8 |
| 20260903195332 | 31 | 141 | 0.0 | 0.0 | 0.00 | 0.48 | 0.48 | 60 | 1011.7 |
| 20260903194826 | 31 | 178 | 0.0 | 0.0 | 0.00 | 0.48 | 0.48 | 62 | 1011.7 |
| 20260903194322 | 31 | 184 | 0.0 | 0.0 | 0.00 | 0.48 | 0.48 | 61 | 1011.7 |
| 20260903193818 | 31 | 73 | 0.0 | 0.0 | 0.00 | 0.48 | 0.48 | 61 | 1011.8 |
| 20260903193314 | 31 | 110 | 0.0 | 4.8 | 0.00 | 0.48 | 0.48 | 61 | 1011.7 |
| 20260903192809 | 30 | 125 | 0.0 | 1.6 | 0.00 | 0.48 | 0.48 | 63 | 1012.0 |
| 20260903192306 | 30 | 195 | 0.0 | 0.0 | 0.00 | 0.48 | 0.48 | 64 | 1011.9 |
| 20260903191800 | 30 | 212 | 0.0 | 0.0 | 0.00 | 0.48 | 0.48 | 64 | 1011.9 |
| 20260903191256 | 30 | 134 | 4.8 | 11.3 | 0.00 | 0.48 | 0.48 | 64 | 1012.0 |
| 20260903190750 | 30 | 119 | 6.4 | 11.3 | 0.00 | 0.48 | 0.48 | 65 | 1012.2 |
| 20260903190245 | 30 | 158 | 4.8 | 11.3 | 0.00 | 0.48 | 0.48 | 65 | 1012.2 |
| 20260903185740 | 30 | 187 | 1.6 | 3.2 | 0.00 | 0.48 | 0.48 | 65 | 1012.1 |
| 20260903185239 | 30 | 91 | 3.2 | 9.7 | 0.00 | 0.48 | 0.48 | 64 | 1012.3 |
| 20260903184736 | 30 | 207 | 0.0 | 1.6 | 0.00 | 0.48 | 0.48 | 65 | 1012.4 |
| 20260903184231 | 30 | 90 | 6.4 | 11.3 | 0.00 | 0.48 | 0.48 | 65 | 1012.4 |
| 20260903183726 | 30 | 181 | 0.0 | 0.0 | 0.00 | 0.48 | 0.48 | 65 | 1012.3 |
| 20260903183215 | 30 | 84 | 4.8 | 11.3 | 0.00 | 0.48 | 0.48 | 65 | 1012.6 |
| 20260903182713 | 29 | 11 | 3.2 | 9.7 | 0.00 | 0.48 | 0.48 | 67 | 1012.6 |
| 20260903182209 | 30 | 137 | 8.0 | 11.3 | 0.00 | 0.48 | 0.48 | 67 | 1012.4 |
| 20260903181707 | 29 | 107 | 0.0 | 1.6 | 0.00 | 0.48 | 0.48 | 67 | 1012.4 |
| 20260903181156 | 29 | 34 | 3.2 | 9.7 | 0.00 | 0.48 | 0.48 | 68 | 1012.4 |
| 20260903180653 | 29 | 151 | 6.4 | 12.9 | 0.00 | 0.48 | 0.48 | 68 | 1012.6 |
| 20260903180151 | 29 | 118 | 1.6 | 3.2 | 0.00 | 0.48 | 0.48 | 68 | 1012.7 |
| 20260903175650 | 30 | 170 | 0.0 | 0.0 | 0.00 | 0.48 | 0.48 | 66 | 1012.9 |
| 20260903175144 | 29 | 148 | 0.0 | 0.0 | 0.00 | 0.48 | 0.48 | 68 | 1012.9 |
| 20260903174639 | 28 | 167 | 0.0 | 0.0 | 0.00 | 0.48 | 0.48 | 69 | 1012.8 |
| 20260903174134 | 28 | 203 | 0.0 | 0.0 | 0.00 | 0.48 | 0.48 | 69 | 1013.0 |
| 20260903173629 | 28 | 200 | 0.0 | 0.0 | 0.00 | 0.48 | 0.48 | 70 | 1013.1 |
| 20260903173125 | 28 | 158 | 0.0 | 0.0 | 0.00 | 0.48 | 0.48 | 70 | 1013.0 |
| 20260903172619 | 28 | 188 | 0.0 | 0.0 | 0.00 | 0.48 | 0.48 | 71 | 1013.0 |
| 20260903172115 | 28 | 112 | 0.0 | 0.0 | 0.00 | 0.48 | 0.48 | 70 | 1013.1 |
| 20260903171615 | 28 | 169 | 3.2 | 4.8 | 0.00 | 0.48 | 0.48 | 72 | 1013.4 |
| 20260903171111 | 28 | 153 | 4.8 | 11.3 | 0.00 | 0.48 | 0.48 | 70 | 1013.3 |
| 20260903170609 | 28 | 121 | 0.0 | 1.6 | 0.00 | 0.48 | 0.48 | 72 | 1013.4 |
| 20260903170105 | 27 | 92 | 0.0 | 0.0 | 0.00 | 0.48 | 0.48 | 74 | 1013.5 |
| 20260903165603 | 27 | 194 | 3.2 | 4.8 | 0.00 | 0.48 | 0.48 | 74 | 1013.5 |
| 20260903165058 | 27 | 156 | 1.6 | 4.8 | 0.00 | 0.48 | 0.48 | 72 | 1013.6 |
| 20260903164553 | 27 | 125 | 0.0 | 0.0 | 0.00 | 0.48 | 0.48 | 73 | 1013.9 |
| 20260903164048 | 27 | 204 | 3.2 | 11.3 | 0.00 | 0.48 | 0.48 | 74 | 1013.7 |
| 20260903163543 | 27 | 91 | 6.4 | 17.7 | 0.00 | 0.48 | 0.48 | 73 | 1013.9 |
| 20260903163039 | 27 | 145 | 3.2 | 6.4 | 0.00 | 0.48 | 0.48 | 74 | 1013.8 |
| 20260903162535 | 27 | 122 | 6.4 | 17.7 | 0.00 | 0.48 | 0.48 | 73 | 1013.9 |
| 20260903162031 | 27 | 72 | 8.0 | 12.9 | 0.00 | 0.48 | 0.48 | 73 | 1014.0 |
| 20260903161526 | 27 | 312 | 1.6 | 6.4 | 0.00 | 0.48 | 0.48 | 74 | 1013.9 |
| 20260903161022 | 27 | 129 | 0.0 | 0.0 | 0.00 | 0.48 | 0.48 | 74 | 1013.7 |
| 20260903160521 | 27 | 144 | 1.6 | 6.4 | 0.00 | 0.48 | 0.48 | 74 | 1014.1 |
| 20260903160015 | 26 | 94 | 4.8 | 11.3 | 0.00 | 0.48 | 0.48 | 75 | 1014.2 |
| 20260903155509 | 26 | 165 | 3.2 | 6.4 | 0.00 | 0.48 | 0.48 | 76 | 1013.9 |
| 20260903155005 | 26 | 132 | 1.6 | 4.8 | 0.00 | 0.48 | 0.48 | 78 | 1014.3 |
| 20260903154500 | 25 | 129 | 3.2 | 9.7 | 0.00 | 0.48 | 0.48 | 78 | 1014.4 |
| 20260903153955 | 25 | 109 | 6.4 | 12.9 | 0.00 | 0.48 | 0.48 | 79 | 1014.5 |
| 20260903153451 | 26 | 152 | 1.6 | 3.2 | 0.00 | 0.48 | 0.48 | 79 | 1014.5 |
| 20260903152947 | 25 | 140 | 3.2 | 11.3 | 0.00 | 0.48 | 0.48 | 81 | 1014.3 |
| 20260903152442 | 25 | 1 | 0.0 | 0.0 | 0.00 | 0.48 | 0.48 | 83 | 1014.5 |
| 20260903151938 | 25 | 124 | 0.0 | 0.0 | 0.00 | 0.48 | 0.48 | 83 | 1014.4 |
| 20260903151432 | 25 | 110 | 4.8 | 12.9 | 0.00 | 0.48 | 0.48 | 83 | 1014.6 |
| 20260903150927 | 25 | 105 | 4.8 | 9.7 | 0.00 | 0.48 | 0.48 | 83 | 1014.2 |
| 20260903150416 | 25 | 127 | 0.0 | 3.2 | 0.00 | 0.48 | 0.48 | 83 | 1014.2 |
| 20260903145911 | 25 | 145 | 0.0 | 1.6 | 0.00 | 0.48 | 0.48 | 85 | 1014.4 |
| 20260903145406 | 25 | 204 | 1.6 | 9.7 | 0.00 | 0.48 | 0.48 | 84 | 1014.7 |
| 20260903144906 | 25 | 16 | 0.0 | 0.0 | 0.00 | 0.48 | 0.48 | 84 | 1014.4 |
| 20260903144400 | 25 | 69 | 0.0 | 0.0 | 0.00 | 0.48 | 0.48 | 85 | 1014.2 |
| 20260903143855 | 24 | 234 | 0.0 | 0.0 | 0.00 | 0.48 | 0.48 | 87 | 1014.3 |
| 20260903143353 | 24 | 12 | 0.0 | 0.0 | 0.00 | 0.48 | 0.48 | 88 | 1014.1 |
| 20260903142848 | 24 | 168 | 3.2 | 9.7 | 0.00 | 0.48 | 0.48 | 88 | 1014.5 |
| 20260903142344 | 24 | 111 | 4.8 | 11.3 | 0.00 | 0.48 | 0.48 | 87 | 1014.3 |
| 20260903141840 | 23 | 318 | 0.0 | 0.0 | 0.00 | 0.48 | 0.48 | 89 | 1014.6 |
| 20260903141335 | 23 | 167 | 0.0 | 0.0 | 0.00 | 0.48 | 0.48 | 89 | 1014.3 |
| 20260903140830 | 23 | 132 | 0.0 | 0.0 | 0.00 | 0.48 | 0.48 | 89 | 1014.2 |
| 20260903140325 | 23 | 121 | 0.0 | 0.0 | 0.00 | 0.48 | 0.48 | 90 | 1014.5 |
| 20260903135821 | 22 | 104 | 0.0 | 0.0 | 0.00 | 0.48 | 0.48 | 93 | 1014.6 |
| 20260903135316 | 22 | 106 | 0.0 | 0.0 | 0.00 | 0.48 | 0.48 | 93 | 1014.8 |
| 20260903134815 | 22 | 131 | 0.0 | 0.0 | 0.00 | 0.48 | 0.48 | 93 | 1014.4 |
| 20260903134311 | 22 | 48 | 0.0 | 0.0 | 0.00 | 0.48 | 0.48 | 93 | 1014.7 |
| 20260903133808 | 22 | 82 | 0.0 | 0.0 | 0.00 | 0.48 | 0.48 | 93 | 1014.7 |
| 20260903133304 | 22 | 85 | 0.0 | 0.0 | 0.00 | 0.48 | 0.48 | 92 | 1014.8 |
| 20260903132804 | 22 | 92 | 0.0 | 0.0 | 0.00 | 0.48 | 0.48 | 94 | 1014.7 |
| 20260903132300 | 22 | 12 | 0.0 | 0.0 | 0.00 | 0.48 | 0.48 | 94 | 1014.8 |
| 20260903131754 | 22 | 104 | 0.0 | 0.0 | 0.00 | 0.48 | 0.48 | 94 | 1014.8 |
| 20260903131253 | 22 | 48 | 0.0 | 0.0 | 0.00 | 0.48 | 0.48 | 95 | 1014.3 |
| 20260903130748 | 21 | 96 | 0.0 | 0.0 | 0.00 | 0.48 | 0.48 | 95 | 1014.5 |
| 20260903130243 | 22 | 49 | 0.0 | 0.0 | 0.00 | 0.48 | 0.48 | 94 | 1014.8 |
| 20260903125741 | 22 | 109 | 0.0 | 0.0 | 0.00 | 0.48 | 0.48 | 94 | 1014.6 |
| 20260903125237 | 22 | 107 | 0.0 | 0.0 | 0.00 | 0.48 | 0.48 | 94 | 1014.8 |
| 20260903124736 | 22 | 121 | 0.0 | 0.0 | 0.00 | 0.48 | 0.48 | 94 | 1014.8 |
| 20260903124232 | 22 | 109 | 0.0 | 0.0 | 0.00 | 0.48 | 0.48 | 94 | 1014.6 |
| 20260903123730 | 21 | 137 | 0.0 | 0.0 | 0.00 | 0.48 | 0.48 | 95 | 1015.0 |
| 20260903123230 | 21 | 119 | 0.0 | 0.0 | 0.00 | 0.48 | 0.48 | 95 | 1014.9 |
| 20260903122728 | 21 | 80 | 0.0 | 0.0 | 0.00 | 0.48 | 0.48 | 96 | 1014.5 |
| 20260903122224 | 21 | 95 | 0.0 | 0.0 | 0.00 | 0.48 | 0.48 | 96 | 1014.5 |
| 20260903121722 | 21 | 77 | 0.0 | 0.0 | 0.00 | 0.48 | 0.48 | 97 | 1014.6 |
| 20260903121218 | 21 | 80 | 0.0 | 0.0 | 0.00 | 0.48 | 0.48 | 97 | 1014.6 |
| 20260903120718 | 21 | 99 | 0.0 | 0.0 | 0.00 | 0.48 | 0.48 | 96 | 1014.8 |
| 20260903120212 | 21 | 86 | 0.0 | 0.0 | 0.00 | 0.48 | 0.48 | 96 | 1014.7 |
| 20260903115711 | 21 | 139 | 0.0 | 0.0 | 0.00 | 0.48 | 0.48 | 96 | 1014.8 |
| 20260903115206 | 21 | 150 | 0.0 | 0.0 | 0.00 | 0.48 | 0.48 | 97 | 1015.0 |
| 20260903114701 | 21 | 127 | 0.0 | 0.0 | 0.00 | 0.48 | 0.48 | 97 | 1014.9 |
| 20260903114155 | 21 | 106 | 0.0 | 0.0 | 0.00 | 0.48 | 0.48 | 97 | 1014.7 |
| 20260903113651 | 21 | 127 | 0.0 | 0.0 | 0.00 | 0.48 | 0.48 | 98 | 1014.8 |
| 20260903113147 | 21 | 144 | 0.0 | 0.0 | 0.00 | 0.48 | 0.48 | 99 | 1015.1 |
| 20260903112644 | 20 | 130 | 0.0 | 0.0 | 0.00 | 0.48 | 0.48 | 99 | 1014.9 |
| 20260903112143 | 20 | 140 | 0.0 | 0.0 | 0.00 | 0.48 | 0.48 | 99 | 1014.6 |
| 20260903111642 | 20 | 133 | 0.0 | 0.0 | 0.00 | 0.48 | 0.48 | 99 | 1014.7 |
| 20260903111138 | 20 | 150 | 0.0 | 0.0 | 0.00 | 0.48 | 0.48 | 99 | 1014.6 |
| 20260903110634 | 20 | 120 | 0.0 | 0.0 | 0.00 | 0.48 | 0.48 | 99 | 1014.7 |
| 20260903110130 | 20 | 157 | 0.0 | 0.0 | 0.00 | 0.48 | 0.48 | 99 | 1014.7 |
| 20260903105624 | 20 | 112 | 0.0 | 0.0 | 0.00 | 0.48 | 0.48 | 99 | 1014.8 |
| 20260903105114 | 20 | 160 | 0.0 | 0.0 | 0.00 | 0.48 | 0.48 | 99 | 1014.8 |
| 20260903104613 | 20 | 130 | 0.0 | 0.0 | 0.00 | 0.48 | 0.48 | 99 | 1014.5 |
| 20260903104103 | 20 | 97 | 0.0 | 0.0 | 0.00 | 0.48 | 0.48 | 99 | 1014.7 |
| 20260903103559 | 20 | 71 | 0.0 | 0.0 | 0.00 | 0.48 | 0.48 | 99 | 1014.7 |
| 20260903103055 | 20 | 92 | 0.0 | 0.0 | 0.00 | 0.48 | 0.48 | 99 | 1014.8 |
| 20260903102550 | 20 | 132 | 0.0 | 0.0 | 0.00 | 0.48 | 0.48 | 99 | 1014.7 |
| 20260903102049 | 20 | 153 | 0.0 | 0.0 | 0.00 | 0.48 | 0.48 | 99 | 1014.6 |
| 20260903101544 | 20 | 137 | 0.0 | 0.0 | 0.00 | 0.48 | 0.48 | 99 | 1014.7 |
| 20260903101040 | 20 | 70 | 0.0 | 0.0 | 0.00 | 0.48 | 0.48 | 99 | 1014.7 |
| 20260903100539 | 20 | 101 | 0.0 | 0.0 | 0.00 | 0.48 | 0.48 | 99 | 1014.9 |
| 20260903100038 | 20 | 145 | 0.0 | 0.0 | 0.00 | 0.48 | 0.48 | 99 | 1015.0 |
| 20260903095536 | 20 | 119 | 0.0 | 0.0 | 0.00 | 0.48 | 0.48 | 99 | 1014.7 |
| 20260903095031 | 20 | 63 | 0.0 | 0.0 | 0.00 | 0.48 | 0.48 | 99 | 1014.7 |
| 20260903094526 | 20 | 171 | 0.0 | 0.0 | 0.00 | 0.48 | 0.48 | 99 | 1014.6 |
| 20260903094022 | 20 | 101 | 0.0 | 0.0 | 0.00 | 0.48 | 0.48 | 99 | 1014.4 |
| 20260903093522 | 20 | 164 | 0.0 | 0.0 | 0.00 | 0.48 | 0.48 | 99 | 1014.3 |
| 20260903093017 | 20 | 178 | 0.0 | 0.0 | 0.00 | 0.48 | 0.48 | 99 | 1014.6 |
| 20260903092516 | 20 | 97 | 0.0 | 0.0 | 0.00 | 0.48 | 0.48 | 99 | 1014.5 |
| 20260903092011 | 20 | 87 | 0.0 | 0.0 | 0.00 | 0.48 | 0.48 | 99 | 1014.4 |
| 20260903091509 | 20 | 120 | 0.0 | 0.0 | 0.00 | 0.48 | 0.48 | 99 | 1014.2 |
| 20260903091003 | 20 | 111 | 0.0 | 0.0 | 0.00 | 0.48 | 0.48 | 99 | 1014.0 |
| 20260903090459 | 20 | 109 | 0.0 | 0.0 | 0.00 | 0.48 | 0.48 | 99 | 1014.3 |
| 20260903085957 | 20 | 169 | 0.0 | 0.0 | 0.00 | 0.48 | 0.48 | 99 | 1014.4 |
| 20260903085456 | 20 | 118 | 0.0 | 0.0 | 0.00 | 0.48 | 0.48 | 99 | 1014.1 |
| 20260903084952 | 20 | 127 | 0.0 | 0.0 | 0.00 | 0.48 | 0.48 | 99 | 1014.1 |
| 20260903084449 | 20 | 103 | 0.0 | 0.0 | 0.00 | 0.48 | 0.48 | 99 | 1013.7 |
| 20260903083944 | 20 | 63 | 0.0 | 0.0 | 0.00 | 0.48 | 0.48 | 99 | 1014.7 |
| 20260903083441 | 20 | 125 | 0.0 | 0.0 | 0.13 | 0.48 | 0.48 | 99 | 1015.2 |
| 20260903082940 | 20 | 64 | 0.0 | 0.0 | 0.13 | 0.48 | 0.48 | 99 | 1015.5 |
| 20260903082435 | 20 | 95 | 0.0 | 0.0 | 0.00 | 0.46 | 0.46 | 99 | 1015.5 |
| 20260903081931 | 20 | 79 | 0.0 | 0.0 | 0.00 | 0.46 | 0.46 | 99 | 1015.6 |
| 20260903081426 | 20 | 155 | 0.0 | 0.0 | 0.00 | 0.46 | 0.46 | 99 | 1015.5 |
| 20260903080922 | 20 | 105 | 0.0 | 0.0 | 0.00 | 0.46 | 0.46 | 99 | 1015.5 |
| 20260903080418 | 20 | 93 | 0.0 | 0.0 | 0.00 | 0.46 | 0.46 | 99 | 1015.6 |
| 20260903075913 | 20 | 141 | 0.0 | 0.0 | 0.00 | 0.46 | 0.46 | 99 | 1015.3 |
| 20260903075409 | 20 | 79 | 0.0 | 0.0 | 0.00 | 0.46 | 0.46 | 99 | 1015.0 |
| 20260903074903 | 20 | 102 | 0.0 | 0.0 | 0.00 | 0.46 | 0.46 | 99 | 1015.0 |
| 20260903074357 | 20 | 96 | 0.0 | 0.0 | 0.00 | 0.46 | 0.46 | 99 | 1014.8 |
| 20260903073852 | 20 | 100 | 0.0 | 0.0 | 0.18 | 0.46 | 0.46 | 99 | 1015.0 |
| 20260903073346 | 20 | 173 | 0.0 | 0.0 | 0.18 | 0.46 | 0.46 | 99 | 1015.1 |
| 20260903072843 | 20 | 88 | 0.0 | 0.0 | 0.13 | 0.43 | 0.43 | 99 | 1015.0 |
| 20260903072339 | 20 | 103 | 0.0 | 0.0 | 0.30 | 0.43 | 0.43 | 99 | 1015.2 |
| 20260903071835 | 20 | 173 | 0.0 | 0.0 | 0.30 | 0.41 | 0.41 | 99 | 1015.2 |
| 20260903071331 | 20 | 110 | 0.0 | 0.0 | 0.30 | 0.38 | 0.38 | 99 | 1015.4 |
| 20260903070826 | 20 | 95 | 0.0 | 0.0 | 0.30 | 0.36 | 0.36 | 99 | 1015.8 |
| 20260903070322 | 20 | 85 | 0.0 | 0.0 | 0.30 | 0.33 | 0.33 | 99 | 1015.9 |
| 20260903065821 | 20 | 111 | 0.0 | 0.0 | 0.30 | 0.30 | 0.30 | 99 | 1016.2 |
| 20260903065315 | 20 | 123 | 0.0 | 0.0 | 0.30 | 0.28 | 0.28 | 99 | 1016.4 |
| 20260903064814 | 20 | 99 | 0.0 | 0.0 | 0.18 | 0.25 | 0.25 | 99 | 1016.1 |
| 20260903064310 | 20 | 84 | 0.0 | 0.0 | 0.00 | 0.23 | 0.23 | 99 | 1016.2 |
| 20260903063806 | 20 | 120 | 0.0 | 0.0 | 0.13 | 0.23 | 0.23 | 99 | 1016.0 |
| 20260903063300 | 20 | 90 | 0.0 | 0.0 | 0.13 | 0.23 | 0.23 | 99 | 1016.0 |
| 20260903062751 | 20 | 107 | 0.0 | 0.0 | 0.00 | 0.20 | 0.20 | 99 | 1015.9 |
| 20260903062250 | 20 | 123 | 0.0 | 0.0 | 0.00 | 0.20 | 0.20 | 99 | 1015.7 |
| 20260903061747 | 20 | 119 | 0.0 | 0.0 | 0.00 | 0.20 | 0.20 | 99 | 1015.9 |
| 20260903061245 | 20 | 117 | 0.0 | 0.0 | 0.00 | 0.20 | 0.20 | 99 | 1015.9 |
| 20260903060741 | 20 | 135 | 0.0 | 0.0 | 0.00 | 0.20 | 0.20 | 99 | 1015.8 |
| 20260903060241 | 20 | 93 | 0.0 | 0.0 | 0.00 | 0.20 | 0.20 | 99 | 1015.8 |
| 20260903055738 | 20 | 74 | 0.0 | 0.0 | 0.18 | 0.20 | 0.20 | 99 | 1015.9 |
| 20260903055237 | 20 | 117 | 0.0 | 0.0 | 0.18 | 0.20 | 0.20 | 99 | 1016.1 |
| 20260903054732 | 20 | 77 | 0.0 | 0.0 | 0.18 | 0.18 | 0.18 | 99 | 1016.0 |
| 20260903054227 | 20 | 80 | 0.0 | 0.0 | 0.30 | 0.18 | 0.18 | 99 | 1016.6 |
| 20260903053724 | 20 | 82 | 0.0 | 0.0 | 0.13 | 0.15 | 0.15 | 99 | 1016.6 |
| 20260903053224 | 20 | 68 | 0.0 | 0.0 | 0.00 | 0.13 | 0.13 | 99 | 1016.6 |
| 20260903052720 | 20 | 82 | 0.0 | 0.0 | 0.00 | 0.13 | 0.13 | 99 | 1017.0 |
| 20260903052215 | 20 | 119 | 0.0 | 0.0 | 0.18 | 0.13 | 0.13 | 99 | 1017.0 |
| 20260903051710 | 20 | 133 | 0.0 | 0.0 | 0.30 | 0.13 | 0.13 | 99 | 1017.2 |
| 20260903051206 | 20 | 132 | 0.0 | 0.0 | 0.43 | 0.10 | 0.10 | 99 | 1017.8 |
| 20260903050701 | 20 | 176 | 0.0 | 0.0 | 0.43 | 0.10 | 0.10 | 99 | 1017.9 |
| 20260903050200 | 21 | 196 | 0.0 | 0.0 | 0.13 | 0.05 | 0.05 | 98 | 1018.4 |
| 20260903045655 | 21 | 180 | 0.0 | 0.0 | 0.00 | 0.03 | 0.03 | 97 | 1018.3 |
| 20260903045152 | 21 | 196 | 0.0 | 0.0 | 0.00 | 0.03 | 0.03 | 98 | 1017.9 |
| 20260903044648 | 21 | 151 | 0.0 | 0.0 | 0.18 | 0.03 | 0.03 | 97 | 1017.6 |
| 20260903044143 | 21 | 104 | 0.0 | 0.0 | 0.18 | 0.03 | 0.03 | 96 | 1017.5 |
| 20260903043640 | 21 | 94 | 0.0 | 0.0 | 0.00 | 0.00 | 0.00 | 96 | 1017.7 |
| 20260903043139 | 21 | 98 | 0.0 | 0.0 | 0.00 | 0.00 | 0.00 | 96 | 1017.8 |
| 20260903042638 | 21 | 129 | 0.0 | 0.0 | 0.00 | 0.00 | 0.00 | 95 | 1017.9 |
| 20260903042133 | 21 | 93 | 0.0 | 0.0 | 0.00 | 0.00 | 0.00 | 92 | 1018.0 |
| 20260903041630 | 21 | 136 | 0.0 | 0.0 | 0.00 | 0.00 | 0.00 | 95 | 1017.8 |
| 20260903041126 | 21 | 128 | 0.0 | 0.0 | 0.00 | 0.00 | 0.00 | 93 | 1017.9 |
| 20260903040624 | 21 | 1 | 0.0 | 0.0 | 0.00 | 0.00 | 0.00 | 96 | 1017.6 |
| 20260903040121 | 21 | 1 | 0.0 | 0.0 | 0.00 | 0.00 | 0.00 | 96 | 1017.5 |
| 20260903035616 | 21 | 5 | 0.0 | 0.0 | 0.00 | 0.00 | 0.00 | 96 | 1017.7 |
| 20260903035112 | 21 | 102 | 0.0 | 0.0 | 0.00 | 0.00 | 0.00 | 96 | 1017.5 |
| 20260903034606 | 21 | 245 | 0.0 | 0.0 | 0.00 | 0.00 | 0.00 | 96 | 1017.7 |
| 20260903034101 | 21 | 57 | 0.0 | 0.0 | 0.00 | 0.00 | 0.00 | 96 | 1017.6 |
| 20260903033557 | 21 | 73 | 0.0 | 0.0 | 0.00 | 0.00 | 0.00 | 96 | 1017.4 |
| 20260903033052 | 21 | 307 | 0.0 | 0.0 | 0.00 | 0.00 | 0.00 | 95 | 1017.7 |
| 20260903032547 | 21 | 208 | 0.0 | 0.0 | 0.00 | 0.00 | 0.00 | 95 | 1017.5 |
| 20260903032042 | 21 | 33 | 0.0 | 0.0 | 0.00 | 0.00 | 0.00 | 95 | 1017.4 |
| 20260903031542 | 21 | 307 | 0.0 | 0.0 | 0.00 | 0.00 | 0.00 | 95 | 1017.4 |
| 20260903031037 | 21 | 275 | 0.0 | 0.0 | 0.00 | 0.00 | 0.00 | 95 | 1017.5 |
| 20260903030532 | 21 | 347 | 0.0 | 0.0 | 0.00 | 0.00 | 0.00 | 95 | 1017.5 |
| 20260903030029 | 21 | 337 | 0.0 | 0.0 | 0.00 | 0.00 | 0.00 | 95 | 1017.6 |
| 20260903025524 | 21 | 305 | 0.0 | 0.0 | 0.00 | 0.00 | 0.00 | 95 | 1017.5 |
| 20260903025020 | 21 | 278 | 0.0 | 0.0 | 0.00 | 0.00 | 0.00 | 95 | 1017.5 |
| 20260903024519 | 21 | 349 | 0.0 | 0.0 | 0.00 | 0.00 | 0.00 | 94 | 1017.4 |
| 20260903024013 | 21 | 324 | 0.0 | 0.0 | 0.00 | 0.00 | 0.00 | 94 | 1017.7 |
| 20260903023509 | 21 | 4 | 0.0 | 0.0 | 0.00 | 0.00 | 0.00 | 94 | 1017.7 |
| 20260903023004 | 21 | 45 | 0.0 | 0.0 | 0.00 | 0.00 | 0.00 | 94 | 1018.1 |
| 20260903022503 | 21 | 12 | 0.0 | 0.0 | 0.00 | 0.00 | 0.00 | 94 | 1018.2 |
| 20260903022001 | 21 | 273 | 0.0 | 0.0 | 0.00 | 0.00 | 0.00 | 94 | 1017.8 |
| 20260903021457 | 21 | 142 | 0.0 | 0.0 | 0.00 | 0.00 | 0.00 | 94 | 1017.7 |
| 20260903020952 | 21 | 309 | 0.0 | 0.0 | 0.00 | 0.00 | 0.00 | 94 | 1017.6 |
| 20260903020448 | 21 | 287 | 0.0 | 0.0 | 0.00 | 0.00 | 0.00 | 94 | 1017.6 |